FW7738 Weather Reports


time (UTC)temp
C
wind
direction
speed
KPH
gust
KPH
rain 1hr
cm
rain 24hr
cm
rain mn
cm
humidity
%
barometer
mb
20260504045033 16 347 1.6 3.2 0.00 0.00 0.00 87 1010.8
20260504044028 16 346 1.6 1.6 0.00 0.00 0.00 87 1010.8
20260504043044 17 346 1.6 3.2 0.00 0.00 0.00 87 1010.8
20260504042019 17 1 1.6 3.2 0.00 0.00 0.00 87 1010.8
20260504041034 17 4 0.0 1.6 0.00 0.00 0.00 86 1011.0
20260504040029 17 12 0.0 1.6 0.00 0.00 0.00 86 1011.0
20260504035025 17 12 0.0 1.6 0.00 0.00 0.00 86 1011.2
20260504034020 17 24 0.0 1.6 0.00 0.00 0.00 85 1011.4
20260504033015 17 38 0.0 1.6 0.00 0.00 0.00 85 1011.5
20260504032031 17 0.0 0.0 0.00 0.00 0.00 85 1011.5
20260504031026 17 0.0 0.0 0.00 0.00 0.00 85 1011.7
20260504030021 17 73 0.0 1.6 0.00 0.00 0.00 86 1011.7
20260504025017 17 0.0 0.0 0.00 0.00 0.00 86 1011.7
20260504024033 17 0.0 0.0 0.00 0.00 0.00 86 1011.7
20260504023028 17 0.0 0.0 0.00 0.00 0.00 86 1011.7
20260504022024 17 20 0.0 1.6 0.00 0.00 0.00 87 1011.6
20260504021039 17 0.0 0.0 0.00 0.00 0.00 87 1011.6
20260504020055 17 0.0 0.0 0.00 0.00 0.00 87 1011.6
20260504015030 17 0.0 0.0 0.00 0.00 0.00 87 1011.6
20260504014025 17 0.0 0.0 0.00 0.00 0.00 87 1011.6
20260504013020 17 352 1.6 1.6 0.00 0.00 0.00 88 1011.6
20260504012035 17 350 1.6 3.2 0.00 0.00 0.00 88 1011.7
20260504011031 17 351 1.6 4.8 0.00 0.00 0.00 87 1011.7
20260504010026 17 345 3.2 6.4 0.00 0.00 0.00 86 1011.7
20260504005022 17 355 1.6 1.6 0.00 0.00 0.00 86 1011.8
20260504004057 17 19 1.6 3.2 0.00 0.00 0.00 85 1011.8
20260504003032 17 70 1.6 1.6 0.00 0.00 0.00 85 1011.9
20260504002048 17 0.0 0.0 0.00 0.00 0.00 85 1012.0
20260504001023 17 72 0.0 1.6 0.00 0.00 0.00 85 1012.1
20260504000018 17 72 0.0 1.6 0.00 0.00 0.00 85 1012.3
20260503235034 17 0.0 0.0 0.00 0.00 0.00 85 1012.4
20260503234029 17 75 0.0 1.6 0.00 0.00 0.00 86 1012.4
20260503233025 17 0.0 0.0 0.00 0.00 0.00 86 1012.5
20260503232020 17 63 1.6 1.6 0.00 0.00 0.00 86 1012.5
20260503231016 17 59 0.0 1.6 0.00 0.00 0.00 86 1012.5
20260503230031 17 59 0.0 1.6 0.00 0.00 0.00 86 1012.5
20260503225026 17 63 0.0 1.6 0.00 0.00 0.00 86 1012.6
20260503224021 17 64 0.0 1.6 0.00 0.00 0.00 86 1012.6
20260503223017 17 61 0.0 1.6 0.00 0.00 0.00 86 1012.5
20260503222032 17 56 0.0 1.6 0.00 0.00 0.00 87 1012.5
20260503221147 17 77 0.0 3.2 0.00 0.00 0.00 87 1012.6
20260503220022 17 74 1.6 3.2 0.00 0.00 0.00 87 1012.7
20260503215018 17 78 1.6 4.8 0.00 0.00 0.00 86 1012.8
20260503214033 17 96 1.6 6.4 0.00 0.00 0.00 86 1012.8
20260503213028 17 104 3.2 4.8 0.00 0.00 0.00 86 1012.9
20260503212024 17 140 4.8 9.7 0.00 0.00 0.00 86 1012.9
20260503211019 17 117 3.2 6.4 0.00 0.00 0.00 87 1012.8
20260503210035 17 118 3.2 6.4 0.00 0.00 0.00 87 1012.8
20260503205030 17 113 4.8 6.4 0.00 0.00 0.00 87 1012.6
20260503204026 17 110 1.6 4.8 0.00 0.00 0.00 87 1012.5
20260503203020 17 105 1.6 4.8 0.00 0.00 0.00 87 1012.2
20260503202036 17 80 1.6 3.2 0.00 0.00 0.00 87 1012.1
20260503201032 17 82 1.6 4.8 0.00 0.00 0.00 86 1011.9
20260503200027 17 87 3.2 6.4 0.00 0.00 0.00 86 1011.9
20260503195022 17 87 3.2 6.4 0.00 0.00 0.00 86 1011.7
20260503194018 17 95 1.6 4.8 0.00 0.00 0.00 85 1011.8
20260503193033 17 79 1.6 9.7 0.00 0.00 0.00 85 1011.7
20260503192029 17 73 3.2 9.7 0.00 0.00 0.00 84 1011.5
20260503191024 17 109 3.2 9.7 0.00 0.00 0.00 84 1011.7
20260503190019 17 87 3.2 9.7 0.00 0.00 0.00 84 1011.7
20260503185054 17 88 6.4 12.9 0.00 0.00 0.00 83 1011.5
20260503184030 17 96 4.8 11.3 0.00 0.00 0.00 82 1011.6
20260503183025 17 92 6.4 14.5 0.00 0.00 0.00 83 1011.5
20260503182021 18 92 8.0 16.1 0.00 0.00 0.00 81 1011.5
20260503181016 18 108 6.4 14.5 0.00 0.00 0.00 81 1011.4
20260503180031 18 89 8.0 16.1 0.00 0.00 0.00 81 1011.1
20260503175027 18 98 9.7 17.7 0.00 0.00 0.00 79 1011.3
20260503174022 18 93 6.4 16.1 0.00 0.00 0.00 80 1011.3
20260503173017 18 103 9.7 16.1 0.00 0.00 0.00 79 1011.3
20260503172033 18 89 4.8 14.5 0.00 0.00 0.00 79 1011.2
20260503171028 18 104 8.0 14.5 0.00 0.00 0.00 78 1011.5
20260503131016 19 90 4.8 12.9 0.00 0.00 0.00 74 1012.6
20260503081037 17 127 6.4 12.9 0.00 0.00 0.00 85 1014.4
20260503072032 17 60 1.6 4.8 0.00 0.00 0.00 91 1014.0
20260503071028 17 52 1.6 3.2 0.00 0.00 0.00 91 1013.8
20260503055030 16 44 0.0 3.2 0.00 0.00 0.00 91 1013.5
20260503054025 16 54 3.2 9.7 0.00 0.00 0.00 91 1013.6
20260503053020 17 45 1.6 6.4 0.00 0.00 0.00 91 1013.5
20260503052015 17 69 1.6 4.8 0.00 0.00 0.00 90 1013.6
20260503051031 17 74 1.6 4.8 0.00 0.00 0.00 90 1013.7
20260503050046 17 81 0.0 3.2 0.00 0.00 0.00 90 1013.6